INTERCOSMOS 24

Last updated on Sat Oct 25 2025 00:02:15 GMT+0000 (Coordinated Universal Time)

1 20261U 89080A 25297.72180800 .00000846 00000+0 25187-3 0 9990 2 20261 82.6106 192.8255 1187518 248.2760 98.7976 12.59339151649686
UTC large
Height (km)
Speed (km/s)
/
Latitude / Longitude
Inclination (degrees)
Orbital Period (minutes)
Azimuth
Elevation
Range (km)
Doppler Factor

Next 0 passes for location: London (51.5072 / 0.1276)

Sorry there are no passes over London.